N0JY-4 Weather Reports


Display with metric or nautical units.
time (UTC)temp
F
wind
direction
speed
MPH
gust
MPH
rain 1hr
in
rain 24hr
in
rain mn
in
humidity
%
barometer
mb
20170919170504 89 131 14.0 10.0 0.00 0.00 0.00 59 1013.0
20170919165733 87 158 11.0 11.0 0.00 0.00 0.00 62 1013.2
20170919165005 86 142 10.0 10.0 0.00 0.00 0.00 64 1013.4
20170919164238 86 162 10.0 12.0 0.00 0.00 0.00 64 1013.4
20170919163505 85 145 12.0 11.0 0.00 0.00 0.00 65 1013.4
20170919162732 85 163 9.0 12.0 0.00 0.00 0.00 66 1013.6
20170919162003 84 170 10.0 7.0 0.00 0.00 0.00 68 1013.7
20170919160507 84 166 10.0 11.0 0.00 0.00 0.00 69 1013.8
20170919155733 84 156 8.0 8.0 0.00 0.00 0.00 70 1013.9
20170919155006 83 155 8.0 10.0 0.00 0.00 0.00 71 1014.0
20170919154239 83 143 10.0 10.0 0.00 0.00 0.00 71 1014.0
20170919153513 83 166 10.0 10.0 0.00 0.00 0.00 72 1014.0
20170919152741 83 183 9.0 8.0 0.00 0.00 0.00 74 1013.9
20170919152014 82 177 9.0 6.0 0.00 0.00 0.00 74 1013.9
20170919151247 83 128 8.0 9.0 0.00 0.00 0.00 74 1014.0
20170919150520 82 149 8.0 10.0 0.00 0.00 0.00 77 1014.0
20170919145748 81 158 8.0 13.0 0.00 0.00 0.00 78 1014.0
20170919145020 80 120 12.0 11.0 0.00 0.00 0.00 79 1013.9
20170919144252 79 152 10.0 7.0 0.00 0.00 0.00 80 1013.9
20170919143523 79 135 10.0 10.0 0.00 0.00 0.00 81 1013.9
20170919142751 79 135 8.0 5.0 0.00 0.00 0.00 83 1013.8
20170919142017 78 150 8.0 10.0 0.00 0.00 0.00 83 1013.8
20170919141251 78 159 9.0 10.0 0.00 0.00 0.00 84 1013.8
20170919140523 78 181 8.0 7.0 0.00 0.00 0.00 85 1013.7
20170919135745 77 131 7.0 9.0 0.00 0.00 0.00 86 1013.7
20170919135017 77 135 10.0 10.0 0.00 0.00 0.00 87 1013.8
20170919134249 77 134 10.0 9.0 0.00 0.00 0.00 87 1013.6
20170919133522 76 152 8.0 7.0 0.00 0.00 0.00 88 1013.5
20170919132750 76 124 10.0 7.0 0.00 0.00 0.00 88 1013.4
20170919132023 76 145 10.0 8.0 0.00 0.00 0.00 89 1013.4
20170919131252 76 131 8.0 8.0 0.00 0.00 0.00 89 1013.3
20170919130519 76 162 11.0 11.0 0.00 0.00 0.00 89 1013.3
20170919125743 76 128 9.0 6.0 0.00 0.00 0.00 90 1013.2
20170919125015 75 152 8.0 9.0 0.00 0.00 0.00 90 1013.0
20170919124244 75 98 7.0 6.0 0.00 0.00 0.00 90 1013.0
20170919123511 75 128 7.0 6.0 0.00 0.00 0.00 90 1013.0
20170919122740 75 143 8.0 5.0 0.00 0.00 0.00 90 1013.0
20170919122013 75 124 6.0 6.0 0.00 0.00 0.00 90 1013.0
20170919121247 76 136 8.0 6.0 0.00 0.00 0.00 90 1012.9
20170919120521 76 135 7.0 6.0 0.00 0.00 0.00 89 1013.0
20170919115747 76 135 8.0 7.0 0.00 0.00 0.00 89 1012.9
20170919115020 76 142 8.0 7.0 0.00 0.00 0.00 89 1012.9
20170919114253 76 138 7.0 7.0 0.00 0.00 0.00 89 1012.9
20170919113508 76 143 7.0 6.0 0.00 0.00 0.00 89 1012.8
20170919112732 76 132 8.0 5.0 0.00 0.00 0.00 89 1012.8
20170919112000 76 134 8.0 7.0 0.00 0.00 0.00 89 1013.0
20170919111233 76 122 5.0 5.0 0.00 0.00 0.00 89 1012.9
20170919110505 76 131 7.0 6.0 0.00 0.00 0.00 89 1012.9
20170919105729 76 127 5.0 5.0 0.00 0.00 0.00 89 1012.8
20170919105001 77 141 5.0 4.0 0.00 0.00 0.00 89 1012.7
20170919104236 77 138 6.0 6.0 0.00 0.00 0.00 89 1012.8
20170919103502 77 118 5.0 5.0 0.00 0.00 0.00 89 1012.7
20170919102728 77 129 5.0 5.0 0.00 0.00 0.00 89 1012.7
20170919101955 77 131 6.0 5.0 0.00 0.00 0.00 89 1012.7
20170919101225 77 128 5.0 5.0 0.00 0.00 0.00 89 1012.8
20170919100458 77 122 6.0 5.0 0.00 0.00 0.00 88 1012.8
20170919095726 77 135 6.0 6.0 0.00 0.00 0.00 88 1012.9
20170919095000 77 114 5.0 4.0 0.00 0.00 0.00 88 1012.8
20170919094233 77 145 5.0 5.0 0.00 0.00 0.00 88 1012.8
20170919093504 77 135 5.0 5.0 0.00 0.00 0.00 88 1012.9
20170919092723 77 146 5.0 5.0 0.00 0.00 0.00 88 1012.8
20170919091952 77 113 4.0 3.0 0.00 0.00 0.00 88 1012.8
20170919091227 78 142 4.0 5.0 0.00 0.00 0.00 87 1012.8
20170919090500 77 125 6.0 6.0 0.00 0.00 0.00 87 1012.8
20170919085729 77 113 5.0 4.0 0.00 0.00 0.00 87 1012.8
20170919085003 78 104 3.0 4.0 0.00 0.00 0.00 87 1012.9
20170919083505 77 114 6.0 7.0 0.00 0.00 0.00 86 1012.8
20170919082733 77 129 6.0 6.0 0.00 0.00 0.00 86 1012.9
20170919082006 77 146 6.0 6.0 0.00 0.00 0.00 86 1012.9
20170919080511 78 117 5.0 5.0 0.00 0.00 0.00 86 1012.9
20170919075741 78 131 5.0 7.0 0.00 0.00 0.00 85 1013.0
20170919075014 78 149 6.0 5.0 0.00 0.00 0.00 85 1013.0
20170919074248 78 155 5.0 5.0 0.00 0.00 0.00 84 1013.2
20170919073520 78 148 5.0 6.0 0.00 0.00 0.00 84 1013.3
20170919072749 78 132 6.0 8.0 0.00 0.00 0.00 84 1013.0
20170919072023 78 127 7.0 8.0 0.00 0.00 0.00 83 1012.8
20170919071256 78 143 8.0 8.0 0.00 0.00 0.00 83 1012.9
20170919070529 79 141 5.0 6.0 0.00 0.00 0.00 83 1013.0
20170919065757 79 148 6.0 6.0 0.00 0.00 0.00 82 1013.0
20170919065030 79 136 7.0 7.0 0.00 0.00 0.00 82 1013.3
20170919064303 79 146 7.0 6.0 0.00 0.00 0.00 81 1013.3
20170919063535 79 142 10.0 8.0 0.00 0.00 0.00 81 1013.3
20170919062803 79 145 6.0 6.0 0.00 0.00 0.00 80 1013.4
20170919062033 80 136 7.0 9.0 0.00 0.00 0.00 79 1013.2
20170919061307 80 146 8.0 10.0 0.00 0.00 0.00 79 1013.2
20170919060540 80 142 8.0 10.0 0.00 0.00 0.00 78 1013.0
20170919055805 80 146 9.0 6.0 0.00 0.00 0.00 78 1012.9
20170919055039 80 131 8.0 10.0 0.00 0.00 0.00 77 1013.3
20170919054312 81 145 8.0 9.0 0.00 0.00 0.00 77 1013.3
20170919053544 81 131 8.0 6.0 0.00 0.00 0.00 76 1013.3
20170919052048 81 139 8.0 8.0 0.00 0.00 0.00 75 1013.2
20170919051321 81 138 9.0 11.0 0.00 0.00 0.00 74 1013.2
20170919050554 81 153 8.0 8.0 0.00 0.00 0.00 74 1013.3
20170919045824 81 121 9.0 9.0 0.00 0.00 0.00 73 1013.5
20170919045057 82 124 7.0 7.0 0.00 0.00 0.00 73 1013.5
20170919044332 82 132 8.0 6.0 0.00 0.00 0.00 73 1013.6
20170919043603 82 132 7.0 8.0 0.00 0.00 0.00 73 1013.5
20170919042832 82 155 7.0 9.0 0.00 0.00 0.00 72 1013.6
20170919042103 82 117 7.0 10.0 0.00 0.00 0.00 71 1013.6
20170919041335 82 131 8.0 10.0 0.00 0.00 0.00 71 1013.5
20170919040609 82 129 7.0 9.0 0.00 0.00 0.00 70 1013.6
20170919035839 82 113 7.0 5.0 0.00 0.00 0.00 68 1013.6
20170919035112 82 128 9.0 8.0 0.00 0.00 0.00 67 1013.5
20170919034345 82 125 8.0 9.0 0.00 0.00 0.00 65 1013.4
20170919033619 83 117 8.0 6.0 0.00 0.00 0.00 64 1013.3
20170919032848 83 149 11.0 8.0 0.00 0.00 0.00 63 1013.2
20170919032122 84 118 11.0 12.0 0.00 0.00 0.00 60 1013.2
20170919031350 83 117 11.0 9.0 0.00 0.00 0.00 58 1013.0
20170919030624 82 113 4.0 4.0 0.00 0.00 0.00 57 1012.9
20170919025851 82 96 4.0 4.0 0.00 0.00 0.00 56 1012.9
20170919025126 83 100 4.0 4.0 0.00 0.00 0.00 56 1012.8
20170919024400 83 104 5.0 3.0 0.00 0.00 0.00 55 1012.8
20170919023632 83 82 4.0 4.0 0.00 0.00 0.00 56 1012.9
20170919022901 83 104 3.0 3.0 0.00 0.00 0.00 55 1013.0
20170919022134 83 87 4.0 5.0 0.00 0.00 0.00 55 1012.9
20170919021407 84 94 4.0 4.0 0.00 0.00 0.00 55 1012.9
20170919020639 84 93 3.0 3.0 0.00 0.00 0.00 55 1012.8
20170919015902 84 105 3.0 3.0 0.00 0.00 0.00 54 1012.7
20170919015135 84 96 3.0 3.0 0.00 0.00 0.00 54 1012.5
20170919014409 85 84 3.0 3.0 0.00 0.00 0.00 53 1012.4
20170919013643 85 101 3.0 4.0 0.00 0.00 0.00 52 1012.4
20170919012908 86 80 3.0 1.0 0.00 0.00 0.00 52 1012.5
20170919012146 86 76 2.0 2.0 0.00 0.00 0.00 51 1012.5
20170919011415 86 94 2.0 2.0 0.00 0.00 0.00 51 1012.4
20170919010650 86 104 2.0 3.0 0.00 0.00 0.00 50 1012.4
20170919005912 87 101 2.0 4.0 0.00 0.00 0.00 50 1012.4
20170919005143 87 105 2.0 2.0 0.00 0.00 0.00 49 1012.3
20170919004414 88 108 2.0 2.0 0.00 0.00 0.00 47 1012.3
20170919003643 88 115 2.0 2.0 0.00 0.00 0.00 46 1012.3
20170919002911 89 110 2.0 2.0 0.00 0.00 0.00 45 1012.2
20170919002138 90 114 1.0 2.0 0.00 0.00 0.00 44 1012.1
20170919001411 90 108 3.0 2.0 0.00 0.00 0.00 42 1012.0
20170919000639 91 113 5.0 4.0 0.00 0.00 0.00 40 1011.9
20170918235906 91 138 6.0 7.0 0.00 0.00 0.00 38 1011.9
20170918235139 91 132 6.0 6.0 0.00 0.00 0.00 38 1011.8
20170918234411 92 160 8.0 6.0 0.00 0.00 0.00 38 1011.9
20170918233646 92 152 6.0 8.0 0.00 0.00 0.00 38 1012.0
20170918232913 92 108 7.0 8.0 0.00 0.00 0.00 37 1012.0
20170918232146 93 110 5.0 9.0 0.00 0.00 0.00 36 1012.0
20170918231419 92 142 7.0 7.0 0.00 0.00 0.00 36 1012.0
20170918230651 93 153 7.0 4.0 0.00 0.00 0.00 35 1012.0
20170918225921 93 162 9.0 9.0 0.00 0.00 0.00 34 1012.0
20170918225154 93 143 6.0 7.0 0.00 0.00 0.00 33 1012.1
20170918224428 93 145 8.0 11.0 0.00 0.00 0.00 33 1012.1
20170918223701 94 125 5.0 7.0 0.00 0.00 0.00 33 1012.1
20170918222929 94 169 3.0 3.0 0.00 0.00 0.00 32 1012.2
20170918222203 94 160 10.0 7.0 0.00 0.00 0.00 32 1012.3
20170918221435 94 181 4.0 4.0 0.00 0.00 0.00 32 1012.3
20170918220709 93 145 6.0 6.0 0.00 0.00 0.00 31 1012.3
20170918215933 93 117 9.0 11.0 0.00 0.00 0.00 30 1012.4
20170918215206 94 111 4.0 4.0 0.00 0.00 0.00 34 1012.4
20170918214440 93 110 8.0 4.0 0.00 0.00 0.00 34 1012.5
20170918213713 93 131 6.0 9.0 0.00 0.00 0.00 35 1012.5
20170918212942 94 115 6.0 4.0 0.00 0.00 0.00 36 1012.6
20170918212213 93 149 5.0 5.0 0.00 0.00 0.00 35 1012.7
20170918211447 93 107 7.0 11.0 0.00 0.00 0.00 36 1012.7
20170918210720 93 128 10.0 7.0 0.00 0.00 0.00 37 1012.9
20170918205947 93 80 5.0 5.0 0.00 0.00 0.00 39 1013.0
20170918205223 93 121 6.0 7.0 0.00 0.00 0.00 38 1013.3
20170918204454 93 307 2.0 2.0 0.00 0.00 0.00 39 1013.3
20170918203728 93 162 2.0 9.0 0.00 0.00 0.00 38 1013.5
20170918202954 93 153 3.0 7.0 0.00 0.00 0.00 38 1013.6
20170918202227 92 158 7.0 10.0 0.00 0.00 0.00 39 1013.7
20170918201457 92 162 9.0 5.0 0.00 0.00 0.00 38 1014.0
20170918200730 92 83 10.0 7.0 0.00 0.00 0.00 38 1014.1
20170918195959 92 128 8.0 8.0 0.00 0.00 0.00 35 1014.2
20170918195232 92 150 6.0 5.0 0.00 0.00 0.00 35 1014.3
20170918194508 92 145 9.0 10.0 0.00 0.00 0.00 34 1014.5
20170918193739 93 118 5.0 6.0 0.00 0.00 0.00 33 1014.7
20170918193008 92 155 8.0 5.0 0.00 0.00 0.00 35 1014.9
20170918192241 92 169 3.0 3.0 0.00 0.00 0.00 37 1015.1
20170918191513 92 129 9.0 5.0 0.00 0.00 0.00 33 1015.2
20170918190747 92 176 10.0 5.0 0.00 0.00 0.00 35 1015.3
20170918190012 91 224 9.0 7.0 0.00 0.00 0.00 34 1015.5
20170918184519 92 150 8.0 11.0 0.00 0.00 0.00 30 1015.6
20170918183751 92 149 8.0 3.0 0.00 0.00 0.00 31 1015.8
20170918183021 92 180 6.0 6.0 0.00 0.00 0.00 30 1016.0
20170918182254 92 201 3.0 7.0 0.00 0.00 0.00 31 1016.0
20170918181527 92 270 0.0 2.0 0.00 0.00 0.00 38 1016.3
20170918180758 91 141 5.0 1.0 0.00 0.00 0.00 37 1016.5
20170918180024 91 69 8.0 8.0 0.00 0.00 0.00 43 1016.6
20170918175258 90 93 5.0 6.0 0.00 0.00 0.00 42 1016.8
20170918174531 90 173 1.0 4.0 0.00 0.00 0.00 43 1017.0
20170918173804 90 63 6.0 4.0 0.00 0.00 0.00 46 1017.1
20170918173028 90 41 4.0 3.0 0.00 0.00 0.00 46 1017.1
20170918171530 89 170 0.0 0.0 0.00 0.00 0.00 50 1017.4
20170918170803 89 208 0.0 5.0 0.00 0.00 0.00 50 1017.5